NOAA 16 DEB, 41139

Orbit data source: Space-Track

NOAA 16 DEB, 41139 is space debris in SSO originally from a launch on Thu, 21 Sep 2000 UTC launched from the Air Force Western Test Range (AFWTR). Debris objects in space refer to the collection of defunct objects orbiting the Earth. Examples of debris include non-operational satellites, rocket bodies, and fragments generated from explosions, collisions, or faulty payload assembly.

Loading next visibility...
Identifier
41139, 2000-055BW
Orbit
SSO
Country
Flag of USUS
Related business
Manufacturer
Unknown
Mission
Spacecraft
Bus & Motor
Unknown
Mass
Unknown
Launch date (UTC)
2000-09-21 (26 years ago)
Launch vehicle
Unknown
Launch site
Air Force Western Test Range (AFWTR)
Object type
Payload
Rocket body
Debris
Shape & HBR
Unknown shape, 0.1 m
Radar Cross Section
Medium (>0.1 m² and <1 m²)

Expand to show TLE details & history
Last TLE update: 3 days ago

TLE from 3 days ago
0 NOAA 16 DEB
1 41139U 00055BW  26170.63944613  .00002931  00000-0  14312-2 0  9998
2 41139  98.9912 236.5603 0055493  17.2283 343.0758 14.17999166539798
Epoch: 2026-06-19T15:20Z
TLE epoch observation values (Epoch: 2026-06-19T15:20:48.145Z)
Latitude
-0.0001°
Longitude
98.49418°
Altitude
796.762 km
Speed
7.475 km/s
True Right ascension
15h 46m 14s
True Declination
0° 00' 00"
Sunlit
Object was in full shadow at epoch
Visualization orbit readout
Latitude
Unknown
Longitude
Unknown
Altitude
Unknown
Speed
Unknown
Apparent Right ascension
Unknown
Apparent Declination
Unknown
Sunlit
N/A
Visualization observer readout
Local Sidereal Time
21:44:36
Azimuth
Unknown
Elevation
Unknown
Doppler factor
Unknown
Orbital elements
Apogee altitude
869.298 km
Perigee altitude
789.306 km
Semi-major axis
7,207.439 km
Eccentricity
0.00555
Inclination
98.9912°
RAAN
236.5603°
Arg. of periapsis
17.2283°
True anomaly
342.88945°
Mean anomaly
343.0758°
Eccentric anomaly
342.98275°
Mean motion
3.54709 °/min
Orbital period
101.49 mins
BSTAR
0.0014312
Loading maneuver chart data...
Computing Atmospheric mass density...
Loading historical data...
Loading historical data...
Loading historical data...
Loading historical data...
Loading historical data...
Loading historical data...
Loading historical data...

Documentation

Showing up to 5 results
|